Weather in Tuttlingen

Germany     47°59′00″N   8°49′43″E
temp.,
°C
wind,
m/s
gust,
m/s
humid.,
%
clouds,
%
prec.,
mm/h
press.,
hPa
HPBL,
m
18 april, sun
sun1823:00+1nne1598100 0.0 1022299
02:000nne1397100 0.1 1021220
05:000nne1393100 0.1 1021270
08:00+1nne129699 0.3 1021171
11:00+3nne1284100 0.3 1020663
14:00+4nne1278100 0.5 1020793
17:00+4nne2381100 0.1 1020560
20:00+2n1196100 0.2 102131
19 april, mon
mon1923:00+1n119799 0.0 102224
02:00+1n1195100 0.0 102228
05:000n119738 0.0 102113
08:00+1n118998 0.0 102181
11:00+7ese125993 0.0 1019968
14:00+8nne2260100 0.0 10181133
17:00+7n2384100 0.7 1018606
20:00+4ne119498 1.2 101810
20 april, tue
tue2023:00+2n119595 0.0 101910
02:00+3e009589 0.0 101811
05:00+1sse009827 0.0 101810
08:00+2se119735 0.0 101875
11:00+9se116820 0.0 1017987
14:00+11e1250100 0.1 10151798
17:00+10ne225833 0.1 10141113
20:00+6ene238838 0.6 101640
21 april, wed
wed2123:00+3nne11935 0.0 101711
02:00+3n11935 0.0 101711
05:00+2n11925 0.0 101710
08:00+5nne008847 0.0 101841
11:00+11ese116212 0.2 10161097
14:00+11ene117355 2.3 1015701
17:00+11n2382100 2.4 1015703
20:00+7nne259198 4.6 101693
22 april, thu
thu2223:00+5nne119147 0.2 101913
02:00+4nnw119166 0.2 101911
05:00+3nnw11915 0.0 101910
08:00+5nnw129287 0.0 102185
11:00+6nnw239099 0.0 1022427
14:00+9n457047 0.1 1021925
17:00+10n44555 0.0 10211250
20:00+5nne38655 0.0 1024254